Weather History for Silver Bay, MN

Change the Weather History Date:

Sunday, August 26, 2012

  Actual Average Record
Temperature  
Mean Temperature 70 °F -  
Max Temperature 84 °F 70 °F 86 °F (1997)
Min Temperature 51 °F 47 °F 35 °F (2008)
Cooling Degree Days 4    
Growing Degree Days 20 (Base 50)    
Moisture  
Dew Point 49 °F    
Average Humidity 53    
Maximum Humidity 88    
Minimum Humidity 16    
Precipitation  
Precipitation 0.00 in - - ()
Sea Level Pressure  
Sea Level Pressure 29.91 in    
Wind  
Wind Speed 3 mph (WSW)    
Max Wind Speed 12 mph    
Max Gust Speed 21 mph    
Visibility 10 miles    
Events      
Averages and records for this station are not official NWS values.
T = Trace of Precipitation, MM = Missing Value Source: NWS Daily Summary

Daily Weather History Graph

Daily Weather History Graph

Search for Another Location

Airport:

Trip Planner

Search our weather history database for the weather conditions in past years. The results will help you decide how hot, cold, wet, or windy it might be!

Date:

Astronomy

Aug. 26, 2012 Rise Set
Actual Time 6:17 AM CDT 7:56 PM CDT
Civil Twilight 5:45 AM CDT 8:28 PM CDT
Nautical Twilight 5:05 AM CDT 9:07 PM CDT
Astronomical Twilight 4:23 AM CDT 9:49 PM CDT
Moon 4:39 PM CDT (8/26) 12:45 AM CDT (8/26)
Length of Visible Light 14h 43m
Length of Day
13h 38m
Waxing Gibbous, 73% of the Moon is Illuminated
Aug 26
Waxing Gibbous
Aug 31
Full
Sep 8
Last Quarter
Sep 15
New
Sep 22
First Quarter

Hourly Weather History & Observations

Time (CDT) Temp. Dew Point Humidity Pressure Visibility Wind Dir Wind Speed Gust Speed Precip Events Conditions
12:13 AM 66.2 °F 57.2 °F 73% 29.93 in 10.0 mi SW 3.5 mph - N/A   Mostly Cloudy
12:33 AM 66.2 °F 57.2 °F 73% 29.93 in 10.0 mi SW 3.5 mph - N/A   Overcast
12:53 AM 66.2 °F 57.2 °F 73% 29.93 in 10.0 mi Calm Calm - N/A   Overcast
1:13 AM 64.4 °F 57.2 °F 77% 29.93 in 10.0 mi Calm Calm - N/A   Overcast
1:33 AM 64.4 °F 57.2 °F 77% 29.92 in 10.0 mi SSW 3.5 mph - N/A   Scattered Clouds
1:53 AM 64.4 °F 59.0 °F 83% 29.92 in 10.0 mi SW 3.5 mph - N/A   Scattered Clouds
2:13 AM 64.4 °F 59.0 °F 83% 29.91 in 10.0 mi SW 3.5 mph - N/A   Mostly Cloudy
2:33 AM 64.4 °F 59.0 °F 83% 29.91 in 10.0 mi Calm Calm - N/A   Mostly Cloudy
2:53 AM 64.4 °F 59.0 °F 83% 29.91 in 10.0 mi Calm Calm - N/A   Mostly Cloudy
3:13 AM 64.4 °F 59.0 °F 83% 29.90 in 10.0 mi Calm Calm - N/A   Overcast
3:33 AM 64.4 °F 59.0 °F 83% 29.91 in 10.0 mi Calm Calm - N/A   Mostly Cloudy
3:53 AM 64.4 °F 57.2 °F 77% 29.90 in 10.0 mi Calm Calm - N/A   Mostly Cloudy
4:13 AM 64.4 °F 57.2 °F 77% 29.90 in 10.0 mi Calm Calm - N/A   Overcast
4:33 AM 64.4 °F 57.2 °F 77% 29.90 in 10.0 mi Calm Calm - N/A   Overcast
4:53 AM 64.4 °F 59.0 °F 83% 29.90 in 10.0 mi Calm Calm - N/A   Overcast
5:13 AM 64.4 °F 57.2 °F 77% 29.91 in 10.0 mi Calm Calm - N/A   Mostly Cloudy
5:33 AM 64.4 °F 59.0 °F 83% 29.91 in 10.0 mi South 3.5 mph - N/A   Scattered Clouds
5:53 AM 64.4 °F 59.0 °F 83% 29.91 in 10.0 mi Calm Calm - N/A   Mostly Cloudy
6:13 AM 64.4 °F 57.2 °F 77% 29.91 in 10.0 mi Calm Calm - N/A   Scattered Clouds
6:33 AM 64.4 °F 59.0 °F 83% 29.91 in 10.0 mi SW 3.5 mph - N/A   Clear
6:53 AM 64.4 °F 59.0 °F 83% 29.91 in 7.0 mi Calm Calm - N/A   Clear
7:13 AM 64.4 °F 59.0 °F 83% 29.91 in 7.0 mi Calm Calm - N/A   Scattered Clouds
7:33 AM 64.4 °F 60.8 °F 88% 29.92 in 7.0 mi Calm Calm - N/A   Scattered Clouds
7:53 AM 64.4 °F 60.8 °F 88% 29.92 in 10.0 mi Calm Calm - N/A   Clear
8:13 AM 66.2 °F 60.8 °F 83% 29.92 in 10.0 mi SW 4.6 mph - N/A   Clear
8:53 AM 68.0 °F 59.0 °F 73% 29.92 in 10.0 mi WSW 4.6 mph - N/A   Clear
9:13 AM 69.8 °F 59.0 °F 68% 29.92 in 10.0 mi Calm Calm - N/A   Clear
9:33 AM 71.6 °F 59.0 °F 64% 29.92 in 10.0 mi SW 4.6 mph - N/A   Clear
9:53 AM 73.4 °F 57.2 °F 57% 29.91 in 10.0 mi SW 5.8 mph - N/A   Clear
10:13 AM 75.2 °F 57.2 °F 53% 29.91 in 10.0 mi WSW 5.8 mph - N/A   Clear
10:33 AM 75.2 °F 55.4 °F 50% 29.92 in 10.0 mi WSW 5.8 mph - N/A   Clear
10:53 AM 77.0 °F 51.8 °F 41% 29.92 in 10.0 mi WSW 6.9 mph - N/A   Clear
11:13 AM 78.8 °F 50.0 °F 36% 29.91 in 10.0 mi West 4.6 mph - N/A   Clear
11:33 AM 78.8 °F 48.2 °F 34% 29.91 in 10.0 mi SW 10.4 mph - N/A   Clear
11:53 AM 78.8 °F 46.4 °F 32% 29.91 in 10.0 mi WSW 6.9 mph - N/A   Clear
12:13 PM 80.6 °F 44.6 °F 28% 29.90 in 10.0 mi SW 8.1 mph - N/A   Clear
12:33 PM 80.6 °F 42.8 °F 26% 29.90 in 10.0 mi SSW 11.5 mph 17.3 mph N/A   Clear
12:53 PM 80.6 °F 39.2 °F 23% 29.89 in 10.0 mi SW 9.2 mph 18.4 mph N/A   Clear
1:13 PM 82.4 °F 37.4 °F 20% 29.89 in 10.0 mi West 5.8 mph - N/A   Clear
1:33 PM 82.4 °F 37.4 °F 20% 29.88 in 10.0 mi SW 9.2 mph - N/A   Clear
1:53 PM 82.4 °F 37.4 °F 20% 29.88 in 10.0 mi SW 10.4 mph 17.3 mph N/A   Clear
2:13 PM 82.4 °F 39.2 °F 21% 29.88 in 10.0 mi WSW 10.4 mph 19.6 mph N/A   Clear
2:33 PM 82.4 °F 39.2 °F 21% 29.87 in 10.0 mi West 6.9 mph 17.3 mph N/A   Clear
2:53 PM 82.4 °F 37.4 °F 20% 29.86 in 10.0 mi WSW 6.9 mph 17.3 mph N/A   Clear
3:13 PM 82.4 °F 37.4 °F 20% 29.86 in 10.0 mi WSW 6.9 mph 17.3 mph N/A   Clear
3:33 PM 82.4 °F 37.4 °F 20% 29.86 in 10.0 mi WSW 6.9 mph 19.6 mph N/A   Clear
3:53 PM 84.2 °F 33.8 °F 16% 29.86 in 10.0 mi West 3.5 mph 20.7 mph N/A   Clear
4:13 PM 82.4 °F 35.6 °F 19% 29.86 in 10.0 mi West 8.1 mph 17.3 mph N/A   Clear
4:33 PM 82.4 °F 35.6 °F 19% 29.86 in 10.0 mi WSW 5.8 mph - N/A   Clear
4:53 PM 82.4 °F 35.6 °F 19% 29.86 in 10.0 mi WSW 11.5 mph - N/A   Clear
5:13 PM 82.4 °F 35.6 °F 19% 29.87 in 10.0 mi West 8.1 mph - N/A   Clear
5:33 PM 80.6 °F 37.4 °F 21% 29.88 in 10.0 mi West 5.8 mph - N/A   Clear
5:53 PM 80.6 °F 35.6 °F 20% 29.88 in 10.0 mi West 8.1 mph - N/A   Clear
6:13 PM 78.8 °F 35.6 °F 21% 29.89 in 10.0 mi West 5.8 mph - N/A   Clear
6:33 PM 77.0 °F 37.4 °F 24% 29.89 in 10.0 mi West 4.6 mph - N/A   Clear
6:53 PM 75.2 °F 37.4 °F 25% 29.90 in 10.0 mi West 4.6 mph - N/A   Clear
7:13 PM 73.4 °F 37.4 °F 27% 29.90 in 10.0 mi Calm Calm - N/A   Clear
7:33 PM 71.6 °F 39.2 °F 31% 29.91 in 10.0 mi Calm Calm - N/A   Clear
7:53 PM 69.8 °F 42.8 °F 38% 29.91 in 10.0 mi Calm Calm - N/A   Clear
8:13 PM 64.4 °F 44.6 °F 49% 29.92 in 10.0 mi Calm Calm - N/A   Clear
8:33 PM 62.6 °F 42.8 °F 48% - 10.0 mi Calm Calm - N/A   Clear
8:53 PM 60.8 °F 44.6 °F 55% 29.94 in 10.0 mi Calm Calm - N/A   Clear
9:13 PM 60.8 °F 46.4 °F 59% 29.94 in 10.0 mi Calm Calm - N/A   Clear
9:33 PM 57.2 °F 46.4 °F 67% 29.94 in 10.0 mi Calm Calm - N/A   Clear
9:53 PM 57.2 °F 46.4 °F 67% 29.95 in 10.0 mi Calm Calm - N/A   Clear
10:13 PM 57.2 °F 44.6 °F 63% 29.96 in 10.0 mi Calm Calm - N/A   Clear
10:33 PM 57.2 °F 46.4 °F 67% 29.96 in 10.0 mi Calm Calm - N/A   Clear
11:13 PM 55.4 °F 46.4 °F 72% 29.98 in 10.0 mi Calm Calm - N/A   Clear
11:53 PM 51.8 °F 46.4 °F 82% 29.99 in 10.0 mi Calm Calm - N/A   Clear